Regional Weather Roundup
Issued by NWS

Home | Current Version | Previous Version | Text Only | Print | Product List | Glossary Off
Versions: 1 2 3 4 5 6 7 8 9 10 11 12 13 14 15 16 17 18 19 20 21 22 23 24 25 26 27 28 29 30 31 32 33 34 35 36 37 38 39 40 41 42 43 44 45 46 47 48 49 50

000
ASUS43 KLSX 040307
RWRMO

WEATHER SUMMARY FOR MISSOURI
NATIONAL WEATHER SERVICE SPRINGFIELD MO
900 PM CST TUE MAR 03 2015

NOTE: "FAIR" INDICATES FEW OR NO CLOUDS BELOW 12,000 FEET WITH NO
       SIGNIFICANT WEATHER AND/OR OBSTRUCTIONS TO VISIBILITY.
       CURRENT SKY AND/OR WEATHER CONDITIONS ARE NOT AVAILABLE FOR
       CHILLICOTHE AND FARMINGTON.

MOZ001>031-035>038-043-044-053-054-040400-
...NORTHERN AND WESTERN MISSOURI...

CITY           SKY/WX    TMP DP  RH WIND       PRES   REMARKS
KANSAS CTY INT CLOUDY    32  25  75 N14       29.97S WCI  22
KANSAS C DTWN  CLOUDY    35  26  69 N12       29.98R WCI  27
LEE`S SUMMIT   CLOUDY    34  27  75 N10       29.96R WCI  26
ST JOSEPH      CLOUDY    30  21  69 N18       30.02R WCI  18
CHILLICOTHE      N/A     34  27  75 N7        29.99R WCI  28

$$
MOZ066>068-077>081-088>096-101>105-040400-
...SOUTHWEST MISSOURI...

CITY           SKY/WX    TMP DP  RH WIND       PRES   REMARKS
SPRINGFIELD    CLOUDY    42  39  89 SE6       29.86S
JOPLIN         CLOUDY    43  42  97 E3        29.87S FOG

$$
MOZ032>034-039>042-045>050-055>058-069>072-040400-
...CENTRAL MISSOURI...

CITY           SKY/WX    TMP DP  RH WIND       PRES   REMARKS
COLUMBIA       CLOUDY    37  36  96 N12       29.91F WCI  29
JEFFERSON CITY LGT RAIN  39  35  86 NW7       29.92F
ROLLA          LGT RAIN  39  37  92 N9        29.88R FOG
SEDALIA        CLOUDY    36  30  79 N12       29.93S WCI  28
WHITEMAN AFB   CLOUDY    35  30  80 N16       29.94R WCI  26
WARRENSBURG    CLOUDY    34  30  86 N12G17    29.94S WCI  25
OSAGE BEACH    CLOUDY    37  34  87 N3        29.89F

$$
MOZ051-052-059>065-040400-
...EAST CENTRAL MISSOURI...

CITY           SKY/WX    TMP DP  RH WIND       PRES   REMARKS
ST LOUIS INTL  CLOUDY    41  37  86 NW8       29.91R
SPIRIT OF STL  CLOUDY    40  37  89 NW7       29.91R
ST CHARLES     CLOUDY    38  35  89 NW8       29.91S

$$
MOZ072>076-082>087-097>100-106>115-040400-
...SOUTH CENTRAL AND SOUTHEAST MISSOURI...

CITY           SKY/WX    TMP DP  RH WIND       PRES   REMARKS
CAPE GIRARDEAU RAIN      37  37 100 CALM      29.90R VSB 1/2
FARMINGTON     CLOUDY    43  39  87 NW3       29.93R
POPLAR BLUFF   LGT RAIN  42  40  92 NE3       29.88S VSB 3/4
WEST PLAINS    LGT RAIN  44  42  93 N3        29.90R FOG

$$


USA.gov is the U.S. government's official web portal to all federal, state and local government web resources and services.